contact:dominique.lefevre@mio.osupytheas.fr, maurice.libes@osupytheas.fr, didier.mallarino@osupytheas.fr
Project:EMSO http://www.emso-fr.org/EMSO-France
Depth: 2436.0 m
Title:EMSO Ligure Ouest : Data MII capteur MICROCAT
DateTime_Computer,Latitude,Longitude,Temperature,Conductivity,Pressure,DateTime_Instrument
DateTime_Computer,Latitude,Longitude,degC,S m-1,dbar,DateTime_Instrument
2022-02-23T00:02:55Z,42.805,6.029,13.3035,4.60072,2470.31,2022-2-23T02:04:29Z
2022-02-23T00:05:58Z,42.805,6.029,13.3036,4.60080,2470.31,2022-2-23T02:07:32Z
2022-02-23T00:09:01Z,42.805,6.029,13.3029,4.60068,2470.297,2022-2-23T02:10:35Z
2022-02-23T00:12:04Z,42.805,6.029,13.3043,4.60084,2470.334,2022-2-23T02:13:38Z
2022-02-23T00:15:07Z,42.805,6.029,13.3033,4.60092,2470.32,2022-2-23T02:16:42Z
2022-02-23T00:18:10Z,42.805,6.029,13.3037,4.60091,2470.32,2022-2-23T02:19:45Z
2022-02-23T00:21:14Z,42.805,6.029,13.3052,4.60074,2470.297,2022-2-23T02:22:48Z
2022-02-23T00:24:17Z,42.805,6.029,13.3027,4.60068,2470.334,2022-2-23T02:25:51Z
2022-02-23T00:27:20Z,42.805,6.029,13.3043,4.60067,2470.32,2022-2-23T02:28:54Z
2022-02-23T00:30:23Z,42.805,6.029,13.3041,4.60075,2470.343,2022-2-23T02:31:57Z
2022-02-23T00:33:26Z,42.805,6.029,13.3033,4.60089,2470.273,2022-2-23T02:35:00Z
2022-02-23T00:36:29Z,42.805,6.029,13.3028,4.60094,2470.334,2022-2-23T02:38:03Z
2022-02-23T00:39:32Z,42.805,6.029,13.3025,4.60101,2470.297,2022-2-23T02:41:07Z
2022-02-23T00:42:35Z,42.805,6.029,13.3032,4.60099,2470.273,2022-2-23T02:44:10Z
2022-02-23T00:45:39Z,42.805,6.029,13.3028,4.60091,2470.273,2022-2-23T02:47:13Z
2022-02-23T00:48:42Z,42.805,6.029,13.3031,4.60082,2470.273,2022-2-23T02:50:16Z
2022-02-23T00:51:45Z,42.805,6.029,13.3035,4.60110,2470.287,2022-2-23T02:53:19Z
2022-02-23T00:54:48Z,42.805,6.029,13.3028,4.60089,2470.297,2022-2-23T02:56:22Z
2022-02-23T00:57:51Z,42.805,6.029,13.3046,4.60079,2470.297,2022-2-23T02:59:25Z
2022-02-23T01:00:54Z,42.805,6.029,13.3016,4.60091,2470.31,2022-2-23T03:02:28Z
2022-02-23T01:03:57Z,42.805,6.029,13.3037,4.60107,2470.32,2022-2-23T03:05:31Z
2022-02-23T01:07:00Z,42.805,6.029,13.3048,4.60093,2470.31,2022-2-23T03:08:35Z
2022-02-23T01:10:04Z,42.805,6.029,13.3023,4.60108,2470.287,2022-2-23T03:11:38Z
2022-02-23T01:13:07Z,42.805,6.029,13.3027,4.60114,2470.273,2022-2-23T03:14:41Z
2022-02-23T01:16:10Z,42.805,6.029,13.3034,4.60090,2470.31,2022-2-23T03:17:44Z
2022-02-23T01:19:13Z,42.805,6.029,13.3031,4.60107,2470.273,2022-2-23T03:20:47Z
2022-02-23T01:22:16Z,42.805,6.029,13.3024,4.60104,2470.273,2022-2-23T03:23:50Z
2022-02-23T01:25:19Z,42.805,6.029,13.3026,4.60107,2470.32,2022-2-23T03:26:53Z
2022-02-23T01:28:22Z,42.805,6.029,13.3022,4.60106,2470.264,2022-2-23T03:29:56Z
2022-02-23T01:31:25Z,42.805,6.029,13.3024,4.60125,2470.273,2022-2-23T03:33:00Z
2022-02-23T01:34:29Z,42.805,6.029,13.3052,4.60101,2470.18,2022-2-23T03:36:03Z
2022-02-23T01:37:32Z,42.805,6.029,13.3022,4.60096,2470.297,2022-2-23T03:39:06Z
2022-02-23T01:40:35Z,42.805,6.029,13.3025,4.60115,2470.273,2022-2-23T03:42:09Z
2022-02-23T01:43:38Z,42.805,6.029,13.3031,4.60110,2470.264,2022-2-23T03:45:12Z
2022-02-23T01:46:41Z,42.805,6.029,13.3022,4.60101,2470.273,2022-2-23T03:48:15Z
2022-02-23T01:49:44Z,42.805,6.029,13.3021,4.60102,2470.287,2022-2-23T03:51:18Z
2022-02-23T01:52:47Z,42.805,6.029,13.3021,4.60120,2470.25,2022-2-23T03:54:21Z
2022-02-23T01:55:50Z,42.805,6.029,13.3019,4.60095,2470.24,2022-2-23T03:57:25Z
2022-02-23T01:58:54Z,42.805,6.029,13.3032,4.60097,2470.273,2022-2-23T04:00:28Z
2022-02-23T02:01:57Z,42.805,6.029,13.3026,4.60094,2470.227,2022-2-23T04:03:31Z
2022-02-23T02:05:00Z,42.805,6.029,13.3028,4.60101,2470.203,2022-2-23T04:06:34Z
2022-02-23T02:08:03Z,42.805,6.029,13.3028,4.60092,2470.227,2022-2-23T04:09:37Z
2022-02-23T02:11:06Z,42.805,6.029,13.3018,4.60106,2470.264,2022-2-23T04:12:40Z
2022-02-23T02:14:09Z,42.805,6.029,13.3026,4.60099,2470.273,2022-2-23T04:15:43Z
2022-02-23T02:17:12Z,42.805,6.029,13.3018,4.60079,2470.24,2022-2-23T04:18:46Z
2022-02-23T02:20:15Z,42.805,6.029,13.3032,4.60107,2470.264,2022-2-23T04:21:50Z
2022-02-23T02:23:19Z,42.805,6.029,13.3025,4.60092,2470.25,2022-2-23T04:24:53Z
2022-02-23T02:26:22Z,42.805,6.029,13.3026,4.60096,2470.25,2022-2-23T04:27:56Z
2022-02-23T02:29:25Z,42.805,6.029,13.3020,4.60102,2470.264,2022-2-23T04:30:59Z
2022-02-23T02:32:28Z,42.805,6.029,13.3028,4.60092,2470.227,2022-2-23T04:34:02Z
2022-02-23T02:35:31Z,42.805,6.029,13.3027,4.60089,2470.236,2022-2-23T04:37:05Z
2022-02-23T02:38:34Z,42.805,6.029,13.3035,4.60124,2470.203,2022-2-23T04:40:08Z
2022-02-23T02:41:37Z,42.805,6.029,13.3022,4.60119,2470.24,2022-2-23T04:43:11Z
2022-02-23T02:44:40Z,42.805,6.029,13.3030,4.60098,2470.217,2022-2-23T04:46:15Z
2022-02-23T02:47:43Z,42.805,6.029,13.3024,4.60108,2470.156,2022-2-23T04:49:18Z
2022-02-23T02:50:47Z,42.805,6.029,13.3026,4.60107,2470.203,2022-2-23T04:52:21Z
2022-02-23T02:53:50Z,42.805,6.029,13.3061,4.60115,2470.227,2022-2-23T04:55:24Z
2022-02-23T02:56:53Z,42.805,6.029,13.3032,4.60097,2470.217,2022-2-23T04:58:27Z
2022-02-23T02:59:56Z,42.805,6.029,13.3026,4.60122,2470.217,2022-2-23T05:01:30Z
2022-02-23T03:02:59Z,42.805,6.029,13.3034,4.60086,2470.24,2022-2-23T05:04:33Z
2022-02-23T03:06:02Z,42.805,6.029,13.3033,4.60097,2470.25,2022-2-23T05:07:36Z
2022-02-23T03:09:05Z,42.805,6.029,13.3021,4.60087,2470.227,2022-2-23T05:10:40Z
2022-02-23T03:12:08Z,42.805,6.029,13.3027,4.60104,2470.203,2022-2-23T05:13:43Z
2022-02-23T03:15:12Z,42.805,6.029,13.3035,4.60115,2470.194,2022-2-23T05:16:46Z
2022-02-23T03:18:15Z,42.805,6.029,13.3031,4.60110,2470.227,2022-2-23T05:19:49Z
2022-02-23T03:21:18Z,42.805,6.029,13.3035,4.60100,2470.217,2022-2-23T05:22:52Z
2022-02-23T03:24:21Z,42.805,6.029,13.3037,4.60110,2470.203,2022-2-23T05:25:55Z
2022-02-23T03:27:24Z,42.805,6.029,13.3031,4.60116,2470.194,2022-2-23T05:28:58Z
2022-02-23T03:30:27Z,42.805,6.029,13.3031,4.60105,2470.133,2022-2-23T05:32:01Z
2022-02-23T03:33:30Z,42.805,6.029,13.3026,4.60104,2470.203,2022-2-23T05:35:05Z
2022-02-23T03:36:33Z,42.805,6.029,13.3032,4.60097,2470.156,2022-2-23T05:38:08Z
2022-02-23T03:39:37Z,42.805,6.029,13.3026,4.60084,2470.203,2022-2-23T05:41:11Z
2022-02-23T03:42:40Z,42.805,6.029,13.3026,4.60099,2470.203,2022-2-23T05:44:14Z
2022-02-23T03:45:43Z,42.805,6.029,13.3022,4.60101,2470.194,2022-2-23T05:47:17Z
2022-02-23T03:48:46Z,42.805,6.029,13.3028,4.60117,2470.217,2022-2-23T05:50:20Z
2022-02-23T03:51:49Z,42.805,6.029,13.3020,4.60115,2470.18,2022-2-23T05:53:23Z
2022-02-23T03:54:52Z,42.805,6.029,13.3033,4.60082,2470.18,2022-2-23T05:56:26Z
2022-02-23T03:57:55Z,42.805,6.029,13.3030,4.60085,2470.203,2022-2-23T05:59:30Z
2022-02-23T04:00:58Z,42.805,6.029,13.3033,4.60091,2470.156,2022-2-23T06:02:33Z
2022-02-23T04:04:02Z,42.805,6.029,13.3018,4.60093,2470.171,2022-2-23T06:05:36Z
2022-02-23T04:07:05Z,42.805,6.029,13.3023,4.60101,2470.156,2022-2-23T06:08:39Z
2022-02-23T04:10:08Z,42.805,6.029,13.3019,4.60078,2470.133,2022-2-23T06:11:42Z
2022-02-23T04:13:11Z,42.805,6.029,13.3019,4.60073,2470.124,2022-2-23T06:14:45Z
2022-02-23T04:16:14Z,42.805,6.029,13.3034,4.60084,2470.147,2022-2-23T06:17:48Z
2022-02-23T04:19:17Z,42.805,6.029,13.3026,4.60084,2470.087,2022-2-23T06:20:51Z
2022-02-23T04:22:20Z,42.805,6.029,13.3022,4.60083,2470.11,2022-2-23T06:23:54Z
2022-02-23T04:25:23Z,42.805,6.029,13.3029,4.60081,2470.194,2022-2-23T06:26:58Z
2022-02-23T04:28:27Z,42.805,6.029,13.3024,4.60102,2470.156,2022-2-23T06:30:01Z
2022-02-23T04:31:30Z,42.805,6.029,13.3051,4.60102,2470.147,2022-2-23T06:33:04Z
2022-02-23T04:34:33Z,42.805,6.029,13.3024,4.60066,2470.147,2022-2-23T06:36:07Z
2022-02-23T04:37:36Z,42.805,6.029,13.3036,4.60084,2470.133,2022-2-23T06:39:10Z
2022-02-23T04:40:39Z,42.805,6.029,13.3036,4.60114,2470.087,2022-2-23T06:42:13Z
2022-02-23T04:43:42Z,42.805,6.029,13.3036,4.60125,2470.147,2022-2-23T06:45:16Z
2022-02-23T04:46:45Z,42.805,6.029,13.3046,4.60140,2470.133,2022-2-23T06:48:19Z
2022-02-23T04:49:48Z,42.805,6.029,13.3076,4.60129,2470.11,2022-2-23T06:51:23Z
2022-02-23T04:52:52Z,42.805,6.029,13.3058,4.60099,2470.133,2022-2-23T06:54:26Z
2022-02-23T04:55:55Z,42.805,6.029,13.3054,4.60112,2470.11,2022-2-23T06:57:29Z
2022-02-23T04:58:58Z,42.805,6.029,13.3052,4.60126,2470.124,2022-2-23T07:00:32Z
2022-02-23T05:02:01Z,42.805,6.029,13.3047,4.60122,2470.11,2022-2-23T07:03:35Z
2022-02-23T05:05:04Z,42.805,6.029,13.3054,4.60106,2470.133,2022-2-23T07:06:38Z
2022-02-23T05:08:07Z,42.805,6.029,13.3034,4.60122,2470.147,2022-2-23T07:09:41Z
2022-02-23T05:11:10Z,42.805,6.029,13.3040,4.60084,2470.171,2022-2-23T07:12:44Z
2022-02-23T05:14:13Z,42.805,6.029,13.3063,4.60127,2470.124,2022-2-23T07:15:48Z
2022-02-23T05:17:16Z,42.805,6.029,13.3045,4.60137,2470.171,2022-2-23T07:18:51Z
2022-02-23T05:20:20Z,42.805,6.029,13.3056,4.60107,2470.133,2022-2-23T07:21:54Z
2022-02-23T05:23:23Z,42.805,6.029,13.3048,4.60115,2470.11,2022-2-23T07:24:57Z
2022-02-23T05:26:26Z,42.805,6.029,13.3063,4.60086,2470.124,2022-2-23T07:28:00Z
2022-02-23T05:29:29Z,42.805,6.029,13.3052,4.60097,2470.124,2022-2-23T07:31:03Z
2022-02-23T05:32:32Z,42.805,6.029,13.3024,4.60104,2470.156,2022-2-23T07:34:06Z
2022-02-23T05:35:35Z,42.805,6.029,13.3039,4.60111,2470.147,2022-2-23T07:37:09Z
2022-02-23T05:38:38Z,42.805,6.029,13.3037,4.60103,2470.11,2022-2-23T07:40:13Z
2022-02-23T05:41:41Z,42.805,6.029,13.3041,4.60110,2470.133,2022-2-23T07:43:16Z
2022-02-23T05:44:45Z,42.805,6.029,13.3041,4.60099,2470.133,2022-2-23T07:46:19Z
2022-02-23T05:47:48Z,42.805,6.029,13.3058,4.60102,2470.156,2022-2-23T07:49:22Z
2022-02-23T05:50:51Z,42.805,6.029,13.3037,4.60079,2470.171,2022-2-23T07:52:25Z
2022-02-23T05:53:54Z,42.805,6.029,13.3050,4.60095,2470.147,2022-2-23T07:55:28Z
2022-02-23T05:56:57Z,42.805,6.029,13.3046,4.60110,2470.133,2022-2-23T07:58:31Z
2022-02-23T06:00:00Z,42.805,6.029,13.3034,4.60087,2470.171,2022-2-23T08:01:34Z
2022-02-23T06:03:03Z,42.805,6.029,13.3034,4.60095,2470.156,2022-2-23T08:04:38Z
2022-02-23T06:06:06Z,42.805,6.029,13.3036,4.60097,2470.156,2022-2-23T08:07:41Z
2022-02-23T06:09:10Z,42.805,6.029,13.3044,4.60096,2470.133,2022-2-23T08:10:44Z
2022-02-23T06:12:13Z,42.805,6.029,13.3038,4.60104,2470.133,2022-2-23T08:13:47Z
2022-02-23T06:15:16Z,42.805,6.029,13.3048,4.60097,2470.147,2022-2-23T08:16:50Z
2022-02-23T06:18:19Z,42.805,6.029,13.3032,4.60117,2470.171,2022-2-23T08:19:53Z
2022-02-23T06:21:22Z,42.805,6.029,13.3048,4.60117,2470.156,2022-2-23T08:22:56Z
2022-02-23T06:24:25Z,42.805,6.029,13.3029,4.60098,2470.156,2022-2-23T08:25:59Z
2022-02-23T06:27:28Z,42.805,6.029,13.3049,4.60122,2470.203,2022-2-23T08:29:03Z
2022-02-23T06:30:31Z,42.805,6.029,13.3053,4.60116,2470.133,2022-2-23T08:32:06Z
2022-02-23T06:33:35Z,42.805,6.029,13.3056,4.60109,2470.171,2022-2-23T08:35:09Z
2022-02-23T06:36:38Z,42.805,6.029,13.3054,4.60131,2470.194,2022-2-23T08:38:12Z
2022-02-23T06:39:41Z,42.805,6.029,13.3050,4.60104,2470.156,2022-2-23T08:41:15Z
2022-02-23T06:42:44Z,42.805,6.029,13.3039,4.60107,2470.171,2022-2-23T08:44:18Z
2022-02-23T06:45:47Z,42.805,6.029,13.3061,4.60142,2470.203,2022-2-23T08:47:21Z
2022-02-23T06:48:50Z,42.805,6.029,13.3048,4.60127,2470.194,2022-2-23T08:50:24Z
2022-02-23T06:51:53Z,42.805,6.029,13.3056,4.60113,2470.133,2022-2-23T08:53:27Z
2022-02-23T06:54:56Z,42.805,6.029,13.3057,4.60086,2470.156,2022-2-23T08:56:31Z
2022-02-23T06:58:00Z,42.805,6.029,13.3043,4.60099,2470.203,2022-2-23T08:59:34Z
2022-02-23T07:01:03Z,42.805,6.029,13.3059,4.60128,2470.18,2022-2-23T09:02:37Z
2022-02-23T07:04:06Z,42.805,6.029,13.3046,4.60122,2470.203,2022-2-23T09:05:40Z
2022-02-23T07:07:09Z,42.805,6.029,13.3037,4.60089,2470.18,2022-2-23T09:08:43Z
2022-02-23T07:10:12Z,42.805,6.029,13.3026,4.60086,2470.217,2022-2-23T09:11:46Z
2022-02-23T07:13:15Z,42.805,6.029,13.3035,4.60074,2470.24,2022-2-23T09:14:49Z
2022-02-23T07:16:18Z,42.805,6.029,13.3052,4.60105,2470.203,2022-2-23T09:17:53Z
2022-02-23T07:19:21Z,42.805,6.029,13.3031,4.60117,2470.203,2022-2-23T09:20:56Z
2022-02-23T07:22:25Z,42.805,6.029,13.3039,4.60110,2470.203,2022-2-23T09:23:59Z
2022-02-23T07:25:28Z,42.805,6.029,13.3051,4.60137,2470.217,2022-2-23T09:27:02Z
2022-02-23T07:28:31Z,42.805,6.029,13.3051,4.60110,2470.217,2022-2-23T09:30:05Z
2022-02-23T07:31:34Z,42.805,6.029,13.3051,4.60092,2470.217,2022-2-23T09:33:08Z
2022-02-23T07:34:37Z,42.805,6.029,13.3054,4.60087,2470.24,2022-2-23T09:36:11Z
2022-02-23T07:37:40Z,42.805,6.029,13.3050,4.60119,2470.18,2022-2-23T09:39:14Z
2022-02-23T07:40:43Z,42.805,6.029,13.3068,4.60106,2470.24,2022-2-23T09:42:17Z
2022-02-23T07:43:46Z,42.805,6.029,13.3063,4.60122,2470.203,2022-2-23T09:45:21Z
2022-02-23T07:46:50Z,42.805,6.029,13.3082,4.60126,2470.203,2022-2-23T09:48:24Z
2022-02-23T07:49:53Z,42.805,6.029,13.3074,4.60115,2470.217,2022-2-23T09:51:27Z
2022-02-23T07:52:56Z,42.805,6.029,13.3044,4.60129,2470.264,2022-2-23T09:54:30Z
2022-02-23T07:55:59Z,42.805,6.029,13.3054,4.60119,2470.217,2022-2-23T09:57:33Z
2022-02-23T07:59:02Z,42.805,6.029,13.3039,4.60137,2470.25,2022-2-23T10:00:36Z
2022-02-23T08:02:05Z,42.805,6.029,13.3045,4.60137,2470.24,2022-2-23T10:03:39Z
2022-02-23T08:05:08Z,42.805,6.029,13.3043,4.60128,2470.24,2022-2-23T10:06:42Z
2022-02-23T08:08:11Z,42.805,6.029,13.3037,4.60130,2470.264,2022-2-23T10:09:46Z
2022-02-23T08:11:15Z,42.805,6.029,13.3063,4.60140,2470.25,2022-2-23T10:12:49Z
2022-02-23T08:14:18Z,42.805,6.029,13.3051,4.60135,2470.24,2022-2-23T10:15:52Z
2022-02-23T08:17:21Z,42.805,6.029,13.3052,4.60140,2470.25,2022-2-23T10:18:55Z
2022-02-23T08:20:24Z,42.805,6.029,13.3044,4.60129,2470.287,2022-2-23T10:21:58Z
2022-02-23T08:23:27Z,42.805,6.029,13.3037,4.60129,2470.24,2022-2-23T10:25:01Z
2022-02-23T08:26:30Z,42.805,6.029,13.3044,4.60121,2470.264,2022-2-23T10:28:04Z
2022-02-23T08:29:33Z,42.805,6.029,13.3048,4.60121,2470.287,2022-2-23T10:31:07Z
2022-02-23T08:32:36Z,42.805,6.029,13.3073,4.60111,2470.25,2022-2-23T10:34:11Z
2022-02-23T08:35:40Z,42.805,6.029,13.3045,4.60104,2470.287,2022-2-23T10:37:14Z
2022-02-23T08:38:43Z,42.805,6.029,13.3031,4.60122,2470.287,2022-2-23T10:40:17Z
2022-02-23T08:41:46Z,42.805,6.029,13.3046,4.60117,2470.287,2022-2-23T10:43:20Z
2022-02-23T08:44:49Z,42.805,6.029,13.3053,4.60101,2470.273,2022-2-23T10:46:23Z
2022-02-23T08:47:52Z,42.805,6.029,13.3032,4.60148,2470.287,2022-2-23T10:49:26Z
2022-02-23T08:50:55Z,42.805,6.029,13.3036,4.60127,2470.334,2022-2-23T10:52:29Z
2022-02-23T08:53:58Z,42.805,6.029,13.3036,4.60127,2470.297,2022-2-23T10:55:32Z
2022-02-23T08:57:01Z,42.805,6.029,13.3055,4.60117,2470.31,2022-2-23T10:58:36Z
2022-02-23T09:00:05Z,42.805,6.029,13.3033,4.60132,2470.297,2022-2-23T11:01:39Z
2022-02-23T09:03:08Z,42.805,6.029,13.3058,4.60122,2470.273,2022-2-23T11:04:42Z
2022-02-23T09:06:11Z,42.805,6.029,13.3059,4.60127,2470.31,2022-2-23T11:07:45Z
2022-02-23T09:09:14Z,42.805,6.029,13.3047,4.60110,2470.343,2022-2-23T11:10:48Z
2022-02-23T09:12:17Z,42.805,6.029,13.3054,4.60116,2470.334,2022-2-23T11:13:51Z
2022-02-23T09:15:20Z,42.805,6.029,13.3029,4.60086,2470.297,2022-2-23T11:16:54Z
2022-02-23T09:18:23Z,42.805,6.029,13.3021,4.60103,2470.32,2022-2-23T11:19:58Z
2022-02-23T09:21:26Z,42.805,6.029,13.3045,4.60117,2470.357,2022-2-23T11:23:01Z
2022-02-23T09:24:30Z,42.805,6.029,13.3034,4.60127,2470.334,2022-2-23T11:26:04Z
2022-02-23T09:27:33Z,42.805,6.029,13.3048,4.60127,2470.343,2022-2-23T11:29:07Z
2022-02-23T09:30:36Z,42.805,6.029,13.3035,4.60117,2470.366,2022-2-23T11:32:10Z
2022-02-23T09:33:39Z,42.805,6.029,13.3038,4.60116,2470.32,2022-2-23T11:35:13Z
2022-02-23T09:36:42Z,42.805,6.029,13.3047,4.60097,2470.343,2022-2-23T11:38:16Z
2022-02-23T09:39:45Z,42.805,6.029,13.3051,4.60107,2470.343,2022-2-23T11:41:19Z
2022-02-23T09:42:48Z,42.805,6.029,13.3054,4.60111,2470.357,2022-2-23T11:44:23Z
2022-02-23T09:45:51Z,42.805,6.029,13.3062,4.60098,2470.38,2022-2-23T11:47:26Z
2022-02-23T09:48:55Z,42.805,6.029,13.3044,4.60116,2470.343,2022-2-23T11:50:29Z
2022-02-23T09:51:58Z,42.805,6.029,13.3041,4.60102,2470.343,2022-2-23T11:53:32Z
2022-02-23T09:55:01Z,42.805,6.029,13.3040,4.60099,2470.38,2022-2-23T11:56:35Z
2022-02-23T09:58:04Z,42.805,6.029,13.3046,4.60092,2470.357,2022-2-23T11:59:38Z
2022-02-23T10:01:07Z,42.805,6.029,13.3029,4.60092,2470.343,2022-2-23T12:02:41Z
2022-02-23T10:04:10Z,42.805,6.029,13.3027,4.60110,2470.366,2022-2-23T12:05:44Z
2022-02-23T10:07:13Z,42.805,6.029,13.3026,4.60105,2470.366,2022-2-23T12:08:48Z
2022-02-23T10:10:16Z,42.805,6.029,13.3024,4.60076,2470.366,2022-2-23T12:11:51Z
2022-02-23T10:13:20Z,42.805,6.029,13.3039,4.60093,2470.366,2022-2-23T12:14:54Z
2022-02-23T10:16:23Z,42.805,6.029,13.3036,4.60083,2470.366,2022-2-23T12:17:57Z
2022-02-23T10:19:26Z,42.805,6.029,13.3034,4.60084,2470.39,2022-2-23T12:21:00Z
2022-02-23T10:22:29Z,42.805,6.029,13.3048,4.60087,2470.404,2022-2-23T12:24:03Z
2022-02-23T10:25:32Z,42.805,6.029,13.3041,4.60101,2470.376,2022-2-23T12:27:06Z
2022-02-23T10:28:35Z,42.805,6.029,13.3037,4.60104,2470.38,2022-2-23T12:30:09Z
2022-02-23T10:31:38Z,42.805,6.029,13.3041,4.60081,2470.39,2022-2-23T12:33:13Z
2022-02-23T10:34:42Z,42.805,6.029,13.3029,4.60102,2470.427,2022-2-23T12:36:16Z
2022-02-23T10:37:45Z,42.805,6.029,13.3041,4.60092,2470.39,2022-2-23T12:39:19Z
2022-02-23T10:40:48Z,42.805,6.029,13.3024,4.60072,2470.413,2022-2-23T12:42:22Z
2022-02-23T10:43:51Z,42.805,6.029,13.3029,4.60079,2470.404,2022-2-23T12:45:25Z
2022-02-23T10:46:54Z,42.805,6.029,13.3024,4.60064,2470.39,2022-2-23T12:48:28Z
2022-02-23T10:49:57Z,42.805,6.029,13.3020,4.60064,2470.413,2022-2-23T12:51:31Z
2022-02-23T10:53:00Z,42.805,6.029,13.3019,4.60073,2470.427,2022-2-23T12:54:35Z
2022-02-23T10:56:03Z,42.805,6.029,13.3017,4.60062,2470.404,2022-2-23T12:57:38Z
2022-02-23T10:59:07Z,42.805,6.029,13.3024,4.60065,2470.413,2022-2-23T13:00:41Z
2022-02-23T11:02:10Z,42.805,6.029,13.3032,4.60072,2470.39,2022-2-23T13:03:44Z
2022-02-23T11:05:13Z,42.805,6.029,13.3029,4.60089,2470.45,2022-2-23T13:06:47Z
2022-02-23T11:08:16Z,42.805,6.029,13.3043,4.60115,2470.437,2022-2-23T13:09:50Z
2022-02-23T11:11:19Z,42.805,6.029,13.3039,4.60121,2470.413,2022-2-23T13:12:53Z
2022-02-23T11:14:22Z,42.805,6.029,13.3036,4.60102,2470.437,2022-2-23T13:15:56Z
2022-02-23T11:17:25Z,42.805,6.029,13.3039,4.60103,2470.45,2022-2-23T13:19:00Z
2022-02-23T11:20:28Z,42.805,6.029,13.3038,4.60104,2470.427,2022-2-23T13:22:03Z
2022-02-23T11:23:32Z,42.805,6.029,13.3031,4.60104,2470.427,2022-2-23T13:25:06Z
2022-02-23T11:26:35Z,42.805,6.029,13.3035,4.60098,2470.413,2022-2-23T13:28:09Z
2022-02-23T11:29:38Z,42.805,6.029,13.3028,4.60101,2470.45,2022-2-23T13:31:12Z
2022-02-23T11:32:41Z,42.805,6.029,13.3050,4.60099,2470.413,2022-2-23T13:34:15Z
2022-02-23T11:35:44Z,42.805,6.029,13.3042,4.60069,2470.45,2022-2-23T13:37:18Z
2022-02-23T11:38:47Z,42.805,6.029,13.3035,4.60112,2470.427,2022-2-23T13:40:21Z
2022-02-23T11:41:50Z,42.805,6.029,13.3040,4.60098,2470.45,2022-2-23T13:43:25Z
2022-02-23T11:44:53Z,42.805,6.029,13.3040,4.60101,2470.427,2022-2-23T13:46:28Z
2022-02-23T11:47:57Z,42.805,6.029,13.3043,4.60076,2470.427,2022-2-23T13:49:31Z
2022-02-23T11:51:00Z,42.805,6.029,13.3040,4.60094,2470.437,2022-2-23T13:52:34Z
2022-02-23T11:54:03Z,42.805,6.029,13.3041,4.60099,2470.413,2022-2-23T13:55:37Z
2022-02-23T11:57:06Z,42.805,6.029,13.3038,4.60091,2470.45,2022-2-23T13:58:40Z
2022-02-23T12:00:09Z,42.805,6.029,13.3038,4.60089,2470.413,2022-2-23T14:01:43Z
2022-02-23T12:03:12Z,42.805,6.029,13.3046,4.60068,2470.39,2022-2-23T14:04:46Z
2022-02-23T12:06:15Z,42.805,6.029,13.3057,4.60127,2470.437,2022-2-23T14:07:50Z
2022-02-23T12:09:18Z,42.805,6.029,13.3046,4.60108,2470.404,2022-2-23T14:10:53Z
2022-02-23T12:12:22Z,42.805,6.029,13.3052,4.60097,2470.427,2022-2-23T14:13:56Z
2022-02-23T12:15:25Z,42.805,6.029,13.3027,4.60096,2470.45,2022-2-23T14:16:59Z
2022-02-23T12:18:28Z,42.805,6.029,13.3043,4.60072,2470.45,2022-2-23T14:20:02Z
2022-02-23T12:21:31Z,42.805,6.029,13.3030,4.60098,2470.437,2022-2-23T14:23:05Z
2022-02-23T12:24:34Z,42.805,6.029,13.3030,4.60105,2470.404,2022-2-23T14:26:08Z
2022-02-23T12:27:37Z,42.805,6.029,13.3066,4.60100,2470.45,2022-2-23T14:29:11Z
2022-02-23T12:30:40Z,42.805,6.029,13.3039,4.60121,2470.437,2022-2-23T14:32:15Z
2022-02-23T12:33:43Z,42.805,6.029,13.3047,4.60110,2470.427,2022-2-23T14:35:18Z
2022-02-23T12:36:47Z,42.805,6.029,13.3023,4.60094,2470.427,2022-2-23T14:38:21Z
2022-02-23T12:39:50Z,42.805,6.029,13.3024,4.60068,2470.413,2022-2-23T14:41:24Z
2022-02-23T12:42:53Z,42.805,6.029,13.3033,4.60072,2470.45,2022-2-23T14:44:27Z
2022-02-23T12:45:56Z,42.805,6.029,13.3036,4.60099,2470.437,2022-2-23T14:47:30Z
2022-02-23T12:48:59Z,42.805,6.029,13.3034,4.60088,2470.413,2022-2-23T14:50:33Z
2022-02-23T12:52:02Z,42.805,6.029,13.3043,4.60104,2470.45,2022-2-23T14:53:36Z
2022-02-23T12:55:05Z,42.805,6.029,13.3052,4.60084,2470.413,2022-2-23T14:56:40Z
2022-02-23T12:58:09Z,42.805,6.029,13.3021,4.60107,2470.45,2022-2-23T14:59:43Z
2022-02-23T13:01:12Z,42.805,6.029,13.3045,4.60105,2470.427,2022-2-23T15:02:46Z
2022-02-23T13:04:15Z,42.805,6.029,13.3021,4.60079,2470.437,2022-2-23T15:05:49Z
2022-02-23T13:07:18Z,42.805,6.029,13.3042,4.60100,2470.39,2022-2-23T15:08:52Z
2022-02-23T13:10:21Z,42.805,6.029,13.3026,4.60088,2470.39,2022-2-23T15:11:55Z
2022-02-23T13:13:24Z,42.805,6.029,13.3031,4.60097,2470.413,2022-2-23T15:14:58Z
2022-02-23T13:16:27Z,42.805,6.029,13.3036,4.60073,2470.413,2022-2-23T15:18:01Z
2022-02-23T13:19:30Z,42.805,6.029,13.3029,4.60092,2470.413,2022-2-23T15:21:05Z
2022-02-23T13:22:34Z,42.805,6.029,13.3035,4.60092,2470.413,2022-2-23T15:24:08Z
2022-02-23T13:25:37Z,42.805,6.029,13.3030,4.60091,2470.45,2022-2-23T15:27:11Z
2022-02-23T13:28:40Z,42.805,6.029,13.3031,4.60089,2470.39,2022-2-23T15:30:14Z
2022-02-23T13:31:43Z,42.805,6.029,13.3026,4.60097,2470.39,2022-2-23T15:33:17Z
2022-02-23T13:34:46Z,42.805,6.029,13.3038,4.60085,2470.404,2022-2-23T15:36:20Z
2022-02-23T13:37:49Z,42.805,6.029,13.3029,4.60099,2470.413,2022-2-23T15:39:23Z
2022-02-23T13:40:52Z,42.805,6.029,13.3025,4.60106,2470.38,2022-2-23T15:42:26Z
2022-02-23T13:43:55Z,42.805,6.029,13.3034,4.60084,2470.399,2022-2-23T15:45:30Z
2022-02-23T13:46:59Z,42.805,6.029,13.3026,4.60082,2470.441,2022-2-23T15:48:33Z
2022-02-23T13:50:02Z,42.805,6.029,13.3023,4.60072,2470.399,2022-2-23T15:51:36Z
2022-02-23T13:53:05Z,42.805,6.029,13.3022,4.60081,2470.404,2022-2-23T15:54:39Z
2022-02-23T13:56:08Z,42.805,6.029,13.3040,4.60094,2470.413,2022-2-23T15:57:42Z
2022-02-23T13:59:11Z,42.805,6.029,13.3015,4.60078,2470.427,2022-2-23T16:00:45Z
2022-02-23T14:02:14Z,42.805,6.029,13.3024,4.60089,2470.413,2022-2-23T16:03:48Z
2022-02-23T14:05:17Z,42.805,6.029,13.3030,4.60094,2470.404,2022-2-23T16:06:51Z
2022-02-23T14:08:20Z,42.805,6.029,13.3029,4.60090,2470.427,2022-2-23T16:09:55Z
2022-02-23T14:11:24Z,42.805,6.029,13.3028,4.60081,2470.366,2022-2-23T16:12:58Z
2022-02-23T14:14:27Z,42.805,6.029,13.3052,4.60091,2470.417,2022-2-23T16:16:01Z
2022-02-23T14:17:30Z,42.805,6.029,13.3027,4.60089,2470.413,2022-2-23T16:19:04Z
2022-02-23T14:20:33Z,42.805,6.029,13.3025,4.60091,2470.404,2022-2-23T16:22:07Z
2022-02-23T14:23:36Z,42.805,6.029,13.3029,4.60095,2470.404,2022-2-23T16:25:10Z
2022-02-23T14:26:39Z,42.805,6.029,13.3026,4.60099,2470.413,2022-2-23T16:28:13Z
2022-02-23T14:29:42Z,42.805,6.029,13.3032,4.60085,2470.38,2022-2-23T16:31:17Z
2022-02-23T14:32:45Z,42.805,6.029,13.3039,4.60097,2470.413,2022-2-23T16:34:20Z
2022-02-23T14:35:49Z,42.805,6.029,13.3031,4.60079,2470.404,2022-2-23T16:37:23Z
2022-02-23T14:38:52Z,42.805,6.029,13.3036,4.60071,2470.404,2022-2-23T16:40:26Z
2022-02-23T14:41:55Z,42.805,6.029,13.3029,4.60104,2470.39,2022-2-23T16:43:29Z
2022-02-23T14:44:58Z,42.805,6.029,13.3042,4.60084,2470.39,2022-2-23T16:46:32Z
2022-02-23T14:48:01Z,42.805,6.029,13.3018,4.60081,2470.38,2022-2-23T16:49:35Z
2022-02-23T14:51:04Z,42.805,6.029,13.3022,4.60092,2470.39,2022-2-23T16:52:38Z
2022-02-23T14:54:07Z,42.805,6.029,13.3027,4.60098,2470.366,2022-2-23T16:55:42Z
2022-02-23T14:57:10Z,42.805,6.029,13.3023,4.60079,2470.39,2022-2-23T16:58:45Z
2022-02-23T15:00:14Z,42.805,6.029,13.3036,4.60102,2470.404,2022-2-23T17:01:48Z
2022-02-23T15:03:17Z,42.805,6.029,13.3031,4.60102,2470.404,2022-2-23T17:04:51Z
2022-02-23T15:06:20Z,42.805,6.029,13.3019,4.60090,2470.45,2022-2-23T17:07:54Z
2022-02-23T15:09:23Z,42.805,6.029,13.3019,4.60081,2470.404,2022-2-23T17:10:57Z
2022-02-23T15:12:26Z,42.805,6.029,13.3026,4.60085,2470.404,2022-2-23T17:14:00Z